Waarnemingen

Advertentie
Mijn weer
Leucate/Semaphore, Frankrijk (7666): temperatuur & dauwpunt: 14.10.2018 04:00:00 - 20.10.2018 04:00:00 (CEST)Leucate/Semaphore, Frankrijk (7666): windsnelheid & windstoten: 14.10.2018 04:00:00 - 20.10.2018 04:00:00 (CEST)Leucate/Semaphore, Frankrijk (7666): windrichting: 14.10.2018 04:00:00 - 20.10.2018 04:00:00 (CEST)Leucate/Semaphore, Frankrijk (7666): luchtdruk: 14.10.2018 04:00:00 - 20.10.2018 04:00:00 (CEST)Leucate/Semaphore, Frankrijk (7666): zicht: 14.10.2018 04:00:00 - 20.10.2018 04:00:00 (CEST)Leucate/Semaphore, Frankrijk (7666): neerslag: 14.10.2018 04:00:00 - 20.10.2018 04:00:00 (CEST)
Datum & Tijd tt [°C] td [°C] ff [km/u] ff [kn] fx [km/u] fx [kn] dd ppp [hPa] vv [km] rr [mm]
20.10.2018 04:00:00 17,8 15,8 11 6 18 10 N 1019,8 - 0,0
20.10.2018 03:00:00 17,7 14,2 10 6 17 9 NNW 1019,8 - 0,0
20.10.2018 02:00:00 17,8 14,3 13 7 19 10 NW 1019,8 - 0,0
20.10.2018 01:00:00 17,7 14,6 8 5 11 6 NW 1019,7 - 0,0
20.10.2018 00:00:00 18,2 14,5 9 5 12 7 NNW 1019,7 - 0,0
19.10.2018 23:00:00 18,3 14,6 7 4 9 5 W 1019,3 - 0,0
19.10.2018 22:00:00 18,4 13,9 8 5 11 6 WZW 1018,9 - 0,0
19.10.2018 21:00:00 18,7 13,1 7 4 10 5 ZW 1018,5 - 0,0
19.10.2018 20:00:00 18,6 14,1 5 3 6 3 W 1018,3 - 0,0
19.10.2018 19:00:00 18,9 14,8 5 3 6 3 WNW 1017,6 - 0,0
19.10.2018 18:00:00 19,7 13,8 2 1 5 3 W 1017,4 - 0,0
19.10.2018 17:00:00 20,0 14,1 3 2 6 4 O 1017,3 15 0,0
19.10.2018 16:00:00 20,6 13,5 3 1 9 5 NNO 1017,5 - 0,0
19.10.2018 15:00:00 21,3 14,5 7 4 15 8 N 1017,4 - 0,0
19.10.2018 14:00:00 20,7 14,3 10 5 18 10 N 1017,7 - 0,0
19.10.2018 13:00:00 20,3 14,4 13 7 19 11 N 1018,0 - 0,0
19.10.2018 12:00:00 20,1 13,5 10 6 20 11 N 1018,1 - 0,0
19.10.2018 11:00:00 19,7 14,5 11 6 21 11 N 1017,7 16 0,0
19.10.2018 10:00:00 18,5 14,2 11 6 18 10 NNW 1017,6 - 0,0
19.10.2018 09:00:00 16,9 14,0 13 7 22 12 NNW 1016,8 - 0,0
19.10.2018 08:00:00 17,5 13,2 15 8 22 12 NNW 1016,0 20 0,0
19.10.2018 07:00:00 16,9 13,8 16 8 24 13 NNW 1015,4 - 0,0
19.10.2018 06:00:00 17,1 14,2 14 8 22 12 NNW 1015,4 - 0,0
19.10.2018 05:00:00 17,2 13,7 13 7 27 14 NW 1015,2 20 0,0
19.10.2018 04:00:00 17,9 13,8 13 7 26 14 NNW 1015,0 - 0,0
19.10.2018 03:00:00 17,9 13,6 14 8 25 14 NW 1015,1 - 0,0
19.10.2018 02:00:00 17,9 13,6 14 8 27 14 NW 1015,1 - 0,0
19.10.2018 01:00:00 17,9 13,2 16 8 26 14 NW 1014,9 - 0,0
19.10.2018 00:00:00 17,8 13,1 11 6 18 10 NNW 1014,9 - 0,0
18.10.2018 23:00:00 17,9 13,0 16 8 22 12 WNW 1014,5 - 0,0
18.10.2018 22:00:00 17,9 13,8 15 8 23 12 NW 1014,0 - 0,0
18.10.2018 21:00:00 18,4 13,7 13 7 18 10 NW 1013,9 - 0,0
18.10.2018 20:00:00 18,0 14,7 14 8 18 10 WNW 1013,8 20 0,0
18.10.2018 19:00:00 18,6 14,5 12 7 22 12 NW 1013,4 - 0,0
18.10.2018 18:00:00 19,5 15,8 13 7 22 12 NW 1013,1 - 0,0
18.10.2018 17:00:00 19,8 15,4 12 6 19 11 NW 1013,2 12 0,0
18.10.2018 16:00:00 19,9 15,3 11 6 22 12 NW 1013,3 - 0,0
18.10.2018 15:00:00 19,9 15,1 13 7 25 14 NW 1013,6 - 0,0
18.10.2018 14:00:00 19,2 15,1 15 8 25 13 NW 1013,9 15 0,0
18.10.2018 13:00:00 18,1 14,6 14 8 25 14 NNW 1014,5 - 0,0
18.10.2018 12:00:00 17,6 14,5 16 9 27 15 NNW 1014,5 - 0,0
18.10.2018 11:00:00 17,3 14,8 16 9 29 16 NNW 1014,4 15 0,0
18.10.2018 10:00:00 16,8 14,6 19 10 31 17 NNW 1014,1 - 0,0
18.10.2018 09:00:00 16,5 15,2 21 11 39 21 NNW 1013,6 - 0,0
18.10.2018 08:00:00 16,1 15,3 20 11 31 17 NNW 1013,4 - 0,4
18.10.2018 07:00:00 16,0 15,4 17 9 34 18 NNW 1013,4 - 2,2
18.10.2018 06:00:00 16,3 15,5 21 11 37 20 NNW 1013,1 - 1,6
18.10.2018 05:00:00 16,2 15,4 19 10 31 17 NNW 1012,9 - 0,0
18.10.2018 04:00:00 16,3 15,5 18 10 32 17 NNW 1013,4 - 2,2
18.10.2018 03:00:00 16,5 15,4 14 8 23 13 NNW 1014,1 - 0,4
18.10.2018 02:00:00 16,6 15,3 14 8 23 12 NW 1014,3 - 0,6
18.10.2018 01:00:00 17,0 15,2 13 7 20 11 NNW 1014,5 - 0,0
18.10.2018 00:00:00 17,0 15,0 9 5 22 12 NNW 1014,7 - 0,4
17.10.2018 23:00:00 17,6 14,5 10 5 13 7 NW 1014,9 - 0,0
17.10.2018 22:00:00 17,3 15,5 8 5 11 6 NW 1014,7 - 0,0
17.10.2018 21:00:00 17,7 16,4 8 4 11 6 W 1014,7 - 0,0
17.10.2018 20:00:00 17,4 15,9 9 5 13 7 WNW 1014,4 - 0,0
17.10.2018 19:00:00 17,9 16,2 8 4 11 6 WZW 1014,5 - 0,0
17.10.2018 18:00:00 18,1 15,7 8 4 17 9 NW 1014,4 - 0,0
17.10.2018 17:00:00 18,1 16,4 10 5 17 9 NW 1014,7 - 0,0
17.10.2018 16:00:00 17,9 16,6 8 4 17 9 NW 1015,0 - 0,0
17.10.2018 15:00:00 17,5 16,2 8 4 16 9 N 1015,2 - 1,2
17.10.2018 14:00:00 18,4 15,6 5 3 19 10 W 1015,9 12 0,0
17.10.2018 13:00:00 18,9 15,4 6 3 12 7 N 1016,7 - 0,0
17.10.2018 12:00:00 18,3 15,5 7 4 19 11 NNW 1016,7 - 0,0
17.10.2018 11:00:00 17,1 14,9 10 5 19 10 NW 1016,9 12 0,0
17.10.2018 10:00:00 16,5 14,9 11 6 22 12 NNW 1017,2 - 0,0
17.10.2018 09:00:00 16,2 14,7 13 7 20 11 NW 1017,1 - 0,0
17.10.2018 08:00:00 16,0 14,5 14 8 23 12 NW 1016,9 12 0,2
17.10.2018 07:00:00 16,3 14,8 10 5 16 9 NW 1017,1 - 1,6
17.10.2018 06:00:00 17,1 14,2 11 6 18 10 NW 1017,0 - 0,0
17.10.2018 05:00:00 17,0 14,1 11 6 19 11 NW 1016,9 15 0,0
17.10.2018 04:00:00 16,9 14,0 11 6 23 12 NW 1017,4 - 0,0
17.10.2018 03:00:00 16,6 14,1 13 7 20 11 NW 1017,8 - 0,0
17.10.2018 02:00:00 17,1 14,4 12 7 22 12 NNW 1018,1 - 0,0
17.10.2018 01:00:00 17,0 14,5 14 8 22 12 NNW 1018,2 - 0,0
17.10.2018 00:00:00 17,3 14,8 14 7 29 16 N 1018,4 - 0,0
16.10.2018 23:00:00 17,3 15,5 14 8 26 14 NNW 1018,6 - 0,0
16.10.2018 22:00:00 18,9 15,8 13 7 36 20 ONO 1018,4 - 0,2
16.10.2018 21:00:00 19,0 15,7 29 16 45 24 OZO 1018,2 - 0,0
16.10.2018 20:00:00 18,9 15,9 33 18 50 27 OZO 1017,8 - 0,0
16.10.2018 19:00:00 18,5 16,7 16 8 44 24 ONO 1017,2 - 0,0
16.10.2018 18:00:00 18,7 15,9 14 8 47 25 NO 1016,7 - 0,0
16.10.2018 17:00:00 18,9 16,5 23 13 45 24 ONO 1016,4 - 0,0
16.10.2018 16:00:00 19,0 16,4 30 16 47 26 O 1016,3 - 0,0
16.10.2018 15:00:00 18,8 16,0 35 19 55 30 O 1016,1 - 3,4
16.10.2018 14:00:00 19,4 16,8 24 13 42 23 O 1016,0 15 0,0
16.10.2018 13:00:00 20,1 16,5 22 12 34 18 OZO 1016,6 - 0,0
16.10.2018 12:00:00 19,7 16,0 23 13 39 21 ZO 1016,4 - 0,0
16.10.2018 11:00:00 19,7 16,3 34 18 47 25 ZO 1016,0 15 0,0
16.10.2018 10:00:00 19,1 16,7 39 21 52 28 OZO 1015,4 - 0,0
16.10.2018 09:00:00 19,0 16,8 36 19 46 25 OZO 1014,8 - 0,0
16.10.2018 08:00:00 19,0 16,2 30 16 40 21 OZO 1013,9 15 0,0
16.10.2018 07:00:00 19,2 16,4 23 12 34 18 OZO 1013,4 - 0,0
16.10.2018 06:00:00 17,6 16,3 10 6 22 12 O 1013,1 - 0,0
16.10.2018 05:00:00 17,3 16,5 5 3 14 8 ONO 1012,5 15 0,0
16.10.2018 04:00:00 16,1 15,1 3 2 8 5 NW 1012,4 - 0,0
16.10.2018 03:00:00 16,1 15,1 7 4 8 5 WZW 1012,8 - 0,0
16.10.2018 02:00:00 16,2 15,2 5 3 10 5 ZZW 1012,4 - 0,0
16.10.2018 01:00:00 16,3 15,0 3 2 15 8 WZW 1011,9 - 0,0
16.10.2018 00:00:00 18,7 16,3 11 6 28 15 ZO 1011,3 - 0,0
15.10.2018 23:00:00 17,9 16,4 19 10 37 20 OZO 1011,1 - 28,9
15.10.2018 22:00:00 16,4 14,9 13 7 26 14 NW 1010,7 - 12,4
15.10.2018 21:00:00 17,2 14,5 13 7 30 16 NNW 1010,3 - 0,0
15.10.2018 20:00:00 17,0 14,3 16 9 29 15 NNW 1009,8 - 0,0
15.10.2018 19:00:00 17,8 14,3 19 10 29 16 N 1009,4 - 0,0
15.10.2018 18:00:00 18,2 14,5 15 8 35 19 N 1008,9 - 0,0
15.10.2018 17:00:00 19,0 14,7 13 7 29 15 N 1008,1 8 0,0
15.10.2018 16:00:00 19,1 14,6 14 8 24 13 N 1007,7 - 0,0
15.10.2018 15:00:00 18,8 14,1 13 7 29 16 NNW 1007,7 - 0,0
15.10.2018 14:00:00 18,5 13,4 17 9 35 19 NW 1007,3 8 0,0
15.10.2018 13:00:00 17,0 13,7 20 11 37 20 NNW 1007,6 - 0,0
15.10.2018 12:00:00 16,6 15,3 14 8 40 21 NW 1007,4 - 0,0
15.10.2018 11:00:00 14,8 14,3 19 10 45 24 NW 1006,8 8 0,2
15.10.2018 10:00:00 14,2 13,7 24 13 51 27 NW 1006,0 - 2,0
15.10.2018 09:00:00 15,0 13,9 11 6 69 37 NNO 1005,6 - 22,9
15.10.2018 08:00:00 17,7 16,6 56 31 113 61 ZO 1004,6 6 5,1
15.10.2018 07:00:00 19,8 18,5 64 35 90 48 ZO 1003,9 - 2,2
15.10.2018 06:00:00 19,5 18,2 66 36 92 50 OZO 1003,9 - 2,8
15.10.2018 05:00:00 19,9 18,4 68 37 96 52 OZO 1004,5 - 0,6
15.10.2018 04:00:00 20,1 18,0 71 38 95 51 OZO 1005,3 - 0,0
15.10.2018 03:00:00 20,3 18,1 68 37 89 48 OZO 1006,1 - 0,0
15.10.2018 02:00:00 20,2 17,4 67 36 88 47 OZO 1006,6 - 0,0
15.10.2018 01:00:00 20,1 17,5 67 36 87 47 OZO 1007,1 - 1,6
15.10.2018 00:00:00 20,1 17,5 61 33 82 44 OZO 1008,1 - 0,0
14.10.2018 23:00:00 20,1 17,5 58 32 79 42 OZO 1008,4 - 0,0
14.10.2018 22:00:00 20,1 17,9 54 29 70 38 OZO 1008,9 - 0,0
14.10.2018 21:00:00 20,1 18,2 41 22 56 30 ZO 1009,8 - 0,0
14.10.2018 20:00:00 20,1 18,0 47 26 58 32 ZO 1009,8 - 0,0
14.10.2018 19:00:00 20,1 18,4 46 25 59 32 ZO 1009,6 - 0,0
14.10.2018 18:00:00 20,2 18,3 49 27 69 37 ZO 1009,3 - 0,0
14.10.2018 17:00:00 20,1 18,2 56 30 69 38 ZO 1008,9 - 0,8
14.10.2018 16:00:00 20,3 18,4 57 31 72 39 ZO 1009,0 - 0,6
14.10.2018 15:00:00 20,5 18,3 57 31 74 40 ZO 1009,2 - 0,0
14.10.2018 14:00:00 20,4 18,0 62 33 85 46 ZZO 1009,3 10 0,0
14.10.2018 13:00:00 20,5 18,8 57 31 74 40 ZO 1010,0 - 0,0
14.10.2018 12:00:00 20,1 18,2 60 33 71 38 ZZO 1010,3 - 0,0
14.10.2018 11:00:00 20,4 18,5 53 28 65 35 ZO 1010,9 10 0,0
14.10.2018 10:00:00 20,2 18,5 47 25 - - ZO 1011,3 - 0,0
14.10.2018 09:00:00 20,4 18,3 51 27 61 33 ZZO 1011,1 - 0,0
14.10.2018 08:00:00 20,2 18,5 - - 62 34 - 1011,0 - 0,0
14.10.2018 07:00:00 20,2 18,5 51 28 68 37 ZZO 1011,1 - 0,0
14.10.2018 06:00:00 20,2 18,7 50 27 73 39 ZZO 1011,4 - 0,0
14.10.2018 05:00:00 20,2 18,7 60 33 83 45 ZZO 1011,3 20 0,0
14.10.2018 04:00:00 20,2 18,7 65 35 79 42 ZO 1011,5 - 0,0

tt = temperatuur
td = dauwpunt
ff = windsnelheid
fx = windstoten
dd = windrichting
ppp = luchtdruk
vv = zicht
rr = neerslag

Weerstations in de omgeving